"Pseudo-MPEC" for P11C80Q

Created 2022 Nov 26 23:22:19 UT using Find_Orb

Click here for an explanation of pseudo-MPECs

 
 Astrometry: 
     P11C80Q* C2022 11 244qAstrometry-6Hg2M2y\#M*J;el(t';!_n=U8RL_=@OG9)]VA@LF51
     P11C80Q  C2022 11 24,fTh6u^kZ-redacted;.5E`=Y]b*skgi.0NnP\tsLJW=*Ltcf6fIF51
     P11C80Q  C2022 11 24=m1G@Wh0YPtclickaDJwshereCJCUg'sm!74k=n5GZ6h7%RJ/Le.F51
     P11C80Q KC2022 11 26vb[@2$uT_HG;_[`W6Ul7i(%aW*qfor]o%ZW:TDr)xWQyrk5YH%h:H21
     P11C80Q KC2022 11 26WBv7*-AUkj4K!NYEFbC#mwP^2c,kQF-.C)EM7@\(0p-1Df1D(T!uH21
     P11C80Q KC2022 11 26+QZq:@bEgpSdSR7explanationjrML\C3HASYe[g@1srEDfe-2RWH21

Station data:
(F51) Pan-STARRS 1, Haleakala  (N20.707234 W156.255910)  US/Hawaii.
   Observers J. Bulger, T. Lowe, A. Schultz, M. Willman. Measurers K.
   Chambers, S. Chastel, T. de Boer, L. Denneau, J. Fairlamb, H. Flewelling,
   M. Huber, C.-C. Lin, E. Magnier, Y. Ramanjooloo, R. Wainscoat, R. Weryk.
   1.8-m Ritchey-Chrétien + CCD.
(H21) Astronomical Research Observatory, Westfield  (N39.483054 W87.968270)
   US/Illinois.  Observer R. Holmes. Measurers S. Foglia, L. Buzzi, T.
   Linder, R. Holmes. 0.76-m f/3.0 astrograph + CCD0.81-m f/4.0 astrograph +
   CCD0.61-m f/4.5 astrograph + CCD0.40-m f/5.32 astrograph + CCD.

Orbital elements:  P11C80Q
   Perihelion 2023 Feb 7.59800 +/- 62.7 TT = 14:21:07 (JD 2459983.09800)
Epoch 2022 Nov 26.0 TT = JDT 2459909.5   Earth MOID: 0.4461   AutoNEOCP
M 341.64245962 +/- 10               (J2000 ecliptic)
n   0.24942989 +/- 0.165            Peri.   69.65753 +/- 44
a   2.49940740 +/- 1.1              Node    44.24074 +/- 5.3
e   0.4524217 +/- 0.222             Incl.   12.22609 +/- 9
P   3.95                   H 21.6   G  0.15   U 11.5  SR
q 1.36862104 +/- 0.409    Q 3.63019376 +/- 71.2
From 6 observations 2022 Nov. 24-26 (39.9 hr); mean residual 0".14
Residuals in arcseconds: 
221124 F51  .08-  .24-    221124 F51  .06+  .22+    221126 H21  .04+  .10-    
221124 F51  .02+  .02+    221126 H21  .10-  .27+    221126 H21  .06+  .17-    

Ephemerides (geocentric):
Date (UTC) HH   RA             Dec           delta  r     elong  mag " sig PA
---- --------  ------------   ------------  ------ ------ -----  --- --------
2022 11 26 23  03 51 58.401   +31 55 39.16  .55838 1.5380 168.4 21.8 23.5  47
2022 11 27 00  03 51 55.043   +31 56 26.15  .55824 1.5378 168.4 21.8 25.2  47
2022 11 27 01  03 51 51.684   +31 57 13.13  .55810 1.5377 168.4 21.8 26.8  47
2022 11 27 02  03 51 48.322   +31 58 00.11  .55796 1.5375 168.3 21.8 28.6  47
2022 11 27 03  03 51 44.959   +31 58 47.07  .55782 1.5373 168.3 21.8 30.4  47
2022 11 27 04  03 51 41.594   +31 59 34.03  .55768 1.5371 168.3 21.8 32.2  47
2022 11 27 05  03 51 38.228   +32 00 20.98  .55755 1.5370 168.3 21.8 34.0  47
2022 11 27 06  03 51 34.860   +32 01 07.92  .55741 1.5368 168.2 21.8 35.9  47
2022 11 27 07  03 51 31.490   +32 01 54.85  .55727 1.5366 168.2 21.8 37.9  47
2022 11 27 08  03 51 28.118   +32 02 41.76  .55713 1.5364 168.2 21.8 39.9  47
2022 11 27 09  03 51 24.745   +32 03 28.68  .55699 1.5363 168.2 21.8 41.9  47
2022 11 27 10  03 51 21.370   +32 04 15.58  .55686 1.5361 168.1 21.8 44.0  47
2022 11 27 11  03 51 17.994   +32 05 02.47  .55672 1.5359 168.1 21.8 46.1  47
2022 11 27 12  03 51 14.616   +32 05 49.35  .55658 1.5357 168.1 21.8 48.2  47
2022 11 27 13  03 51 11.236   +32 06 36.22  .55645 1.5356 168.1 21.8 50.4  47
2022 11 27 14  03 51 07.855   +32 07 23.09  .55631 1.5354 168.0 21.8 52.7  47
2022 11 27 15  03 51 04.472   +32 08 09.94  .55618 1.5352 168.0 21.8 54.9  47
2022 11 27 16  03 51 01.087   +32 08 56.78  .55604 1.5350 168.0 21.8 57.3  47
2022 11 27 17  03 50 57.701   +32 09 43.62  .55591 1.5349 168.0 21.8 59.6  47
2022 11 27 18  03 50 54.314   +32 10 30.44  .55577 1.5347 167.9 21.8 62.0  47
2022 11 27 19  03 50 50.925   +32 11 17.25  .55564 1.5345 167.9 21.8 64.5  47
2022 11 27 20  03 50 47.534   +32 12 04.06  .55551 1.5343 167.9 21.8 66.9  47
2022 11 27 21  03 50 44.142   +32 12 50.85  .55537 1.5342 167.9 21.8 69.5  47
2022 11 27 22  03 50 40.749   +32 13 37.63  .55524 1.5340 167.8 21.8 72.0  47
2022 11 27 23  03 50 37.354   +32 14 24.40  .55511 1.5338 167.8 21.8 74.6  47
2022 11 28 00  03 50 33.958   +32 15 11.17  .55498 1.5336 167.8 21.8 77.3  47
2022 11 28 01  03 50 30.560   +32 15 57.92  .55484 1.5335 167.8 21.8 80.0  47
2022 11 28 02  03 50 27.161   +32 16 44.66  .55471 1.5333 167.7 21.8 82.7  47
2022 11 28 03  03 50 23.760   +32 17 31.39  .55458 1.5331 167.7 21.8 85.5  47
2022 11 28 04  03 50 20.358   +32 18 18.11  .55445 1.5329 167.7 21.8 88.3  47
2022 11 28 05  03 50 16.955   +32 19 04.82  .55432 1.5328 167.6 21.8 91.2  47
2022 11 28 06  03 50 13.550   +32 19 51.52  .55419 1.5326 167.6 21.8 94.1  47
2022 11 28 07  03 50 10.144   +32 20 38.20  .55406 1.5324 167.6 21.8 97.0  47
2022 11 28 08  03 50 06.736   +32 21 24.88  .55393 1.5322 167.6 21.8  100  47
2022 11 28 09  03 50 03.327   +32 22 11.55  .55380 1.5321 167.5 21.8  103  47
2022 11 28 10  03 49 59.917   +32 22 58.20  .55367 1.5319 167.5 21.8  106  47
2022 11 28 11  03 49 56.506   +32 23 44.84  .55355 1.5317 167.5 21.8  109  47
2022 11 28 12  03 49 53.093   +32 24 31.48  .55342 1.5316 167.4 21.8  112  47
2022 11 28 13  03 49 49.679   +32 25 18.10  .55329 1.5314 167.4 21.8  115  47
2022 11 28 14  03 49 46.264   +32 26 04.70  .55316 1.5312 167.4 21.8  119  47
2022 11 28 15  03 49 42.848   +32 26 51.30  .55304 1.5310 167.4 21.8  122  47
2022 11 28 16  03 49 39.430   +32 27 37.89  .55291 1.5309 167.3 21.8  125  47
2022 11 28 17  03 49 36.012   +32 28 24.46  .55278 1.5307 167.3 21.8  129  47
2022 11 28 18  03 49 32.591   +32 29 11.03  .55266 1.5305 167.3 21.8  132  47
2022 11 28 19  03 49 29.170   +32 29 57.58  .55253 1.5303 167.2 21.8  135  47
2022 11 28 20  03 49 25.748   +32 30 44.12  .55241 1.5302 167.2 21.8  139  47
2022 11 28 21  03 49 22.324   +32 31 30.64  .55228 1.5300 167.2 21.8  142  47
2022 11 28 22  03 49 18.900   +32 32 17.16  .55216 1.5298 167.1 21.8  146  47